Dewpoint
-6 -5 -3 -1 1 3 6 10 9 10 12 12 10 8 8 8 8 8 7 8 9 10 11 12 12 13 14 16 17 18 19 19 20 21 20 21 21 21 22 23 24 24 25 26 28 27 28 28 27 28 28 29 29 30 30 31 30 30 30 31 31 31 32
-6 -7 -5 -4 -2 1 3 7 10 8 10 11 9 8 7 7 6 5 6 7 7 8 9 10 10 11 12 14 15 17 17 18 19 19 18 19 19 18 20 21 21 22 23 23 26 26 27 28 29 27 29 28 29 29 29 29 29 29 29 29 29 30 30
-7 -7 -7 -6 -3 -1 0 3 7 6 7 9 7 6 5 5 5 4 4 5 6 6 8 8 9 9 11 12 13 14 15 16 17 18 17 18 18 18 18 19 19 20 21 22 23 25 25 26 27 27 27 28 29 29 29 28 28 29 29 29 29 29 29
-6 -7 -8 -6 -5 -3 -1 1 4 7 6 6 3 2 2 4 3 2 2 3 5 6 6 7 7 8 8 9 10 11 12 13 15 16 16 16 17 16 17 17 17 18 19 20 21 22 23 24 25 25 25 26 27 28 27 27 28 28 28 28 28 28 28
-5 -6 -7 -7 -6 -4 -2 0 2 5 6 4 2 0 -0 1 2 1 0 1 2 4 5 6 6 6 6 7 7 8 9 10 12 14 15 14 15 14 15 15 15 15 16 18 19 20 22 22 23 25 23 21 23 24 24 24 25 26 26 26 27 27 28
-3 -3 -6 -7 -6 -5 -3 -1 1 3 7 4 2 1 -0 -0 -2 -2 -0 -0 -1 0 3 4 4 4 5 5 5 6 7 9 10 12 12 13 14 14 13 14 14 14 14 15 14 16 16 18 19 21 20 18 20 21 20 19 20 22 23 23 23 24 27
-4 -4 -4 -6 -6 -5 -4 -2 1 4 6 5 3 2 3 2 -2 -3 -4 -3 -2 -1 -1 0 1 3 3 4 5 5 6 7 8 10 10 11 11 13 11 13 12 13 12 12 11 12 14 13 15 16 12 14 14 16 17 15 15 16 18 19 21 20 25
-5 -4 -4 -6 -7 -6 -5 -3 -0 3 6 7 5 4 3 -1 1 -1 -1 -1 -1 -2 -1 -1 0 2 2 4 4 5 6 7 7 8 8 9 10 11 10 11 10 12 10 9 10 9 11 9 10 9 12 12 12 12 12 13 13 13 13 15 18 18 23
-6 -5 -5 -7 -7 -7 -4 -1 0 4 8 7 6 5 3 1 -1 -1 -2 -2 -2 -1 -1 -1 -0 1 1 2 2 4 5 7 8 7 6 7 8 9 9 9 9 9 7 7 9 9 10 7 7 8 8 8 6 7 8 10 12 12 13 14 14 16 22
-6 -5 -6 -7 -6 -5 -4 -3 -1 2 10 7 5 4 2 1 -1 -1 -2 -2 -3 -2 -2 -1 -0 0 -0 0 2 2 4 5 7 6 5 4 5 6 7 7 7 7 5 6 5 6 5 5 8 6 9 8 6 6 7 10 11 10 10 11 13 15 20
-6 -6 -6 -7 -6 -6 -5 -4 -3 3 12 11 8 2 1 -1 -2 -2 -3 -3 -3 -3 -4 -3 -2 -2 -1 -1 1 1 2 4 5 4 4 4 4 6 6 6 6 6 6 6 4 5 5 7 6 7 9 7 6 9 10 10 10 10 10 11 10 10 14
-6 -7 -7 -7 -7 -7 -7 -6 -3 12 12 10 9 3 -3 -4 -4 -4 -5 -4 -4 -5 -4 -3 -4 -3 -3 -2 -2 -0 1 2 4 3 2 3 4 6 7 9 8 6 5 7 4 5 5 6 6 7 7 8 9 9 9 10 10 10 10 10 9 9 9
-7 -7 -8 -7 -8 -7 -7 -7 -4 10 12 9 8 7 -3 -8 -6 -7 -6 -5 -4 -4 -4 -4 -4 -5 -5 -4 -3 -3 0 2 4 2 1 2 4 4 5 7 8 9 8 7 4 5 4 6 7 6 8 9 9 9 9 9 9 9 8 8 7 6 7
-8 -8 -8 -8 -8 -9 -8 -8 -6 8 11 10 8 7 -0 -6 -7 -7 -6 -5 -5 -6 -6 -5 -5 -6 -7 -5 -5 -4 -1 1 3 0 -1 -1 -0 1 2 3 5 6 6 7 5 4 3 5 6 5 7 8 9 7 6 6 5 6 6 6 6 7 8
-9 -9 -9 -9 -9 -9 -10 -9 -7 8 9 10 7 5 -3 -8 -8 -10 -8 -8 -7 -5 -6 -6 -5 -5 -6 -6 -6 -6 -3 -1 2 -1 -3 -3 -3 -2 -2 -1 1 3 3 3 3 3 3 3 4 5 5 6 6 6 5 5 4 5 5 6 6 6 8
-10 -11 -11 -11 -10 -10 -11 -11 -8 5 7 8 8 2 -8 -9 -10 -10 -10 -9 -8 -8 -8 -8 -6 -6 -6 -6 -6 -6 -3 -2 1 -1 -4 -5 -5 -4 -4 -4 -1 4 5 4 3 1 1 1 3 7 4 4 4 3 2 1 -0 2 2 1 1 -0 -0
-12 -12 -12 -12 -12 -11 -12 -12 -10 -3 4 7 8 -0 -7 -10 -12 -12 -10 -10 -9 -10 -9 -9 -8 -7 -8 -7 -8 -6 -4 0 1 -1 -4 -6 -7 -6 -7 -7 -5 -2 3 5 5 4 4 4 5 5 5 5 5 3 -0 -5 -5 -3 -2 -3 -3 -3 -3
-13 -13 -13 -13 -14 -13 -13 -14 -12 -10 -4 5 7 1 -8 -10 -13 -13 -12 -10 -10 -11 -11 -10 -10 -10 -10 -9 -9 -6 -3 4 0 -2 -4 -7 -7 -8 -8 -6 -8 -8 -6 -5 -6 -6 -6 -5 -5 -5 -4 1 0 -2 -3 -9 -10 -7 -6 -4 -3 -5 -4
-14 -14 -14 -14 -14 -14 -15 -15 -14 -12 -9 3 5 -0 -5 -10 -14 -15 -13 -13 -13 -13 -13 -12 -12 -12 -10 -9 -9 -6 4 3 -1 -2 -4 -6 -7 -9 -8 -7 -10 -10 -11 -12 -12 -13 -10 -11 -9 -8 -8 -7 -5 -4 -4 -7 -8 -10 -8 -7 -5 -5 -5
-15 -14 -15 -14 -14 -15 -15 -15 -15 -14 -11 -0 2 4 -5 -12 -14 -15 -14 -14 -15 -17 -15 -14 -14 -15 -11 -10 -7 -6 2 4 3 -2 -5 -7 -9 -9 -9 -7 -10 -11 -12 -12 -13 -12 -11 -10 -9 -9 -9 -9 -8 -7 -6 -5 -5 -6 -8 -9 -9 -7 -6
-16 -16 -16 -16 -15 -17 -17 -16 -16 -15 -12 -7 -5 2 -5 -13 -14 -15 -15 -15 -16 -17 -16 -16 -16 -14 -13 -11 -8 -6 -5 3 5 -1 -7 -8 -8 -7 -7 -9 -14 -14 -14 -15 -15 -16 -16 -17 -16 -16 -15 -14 -13 -13 -11 -9 -7 -6 -6 -8 -10 -10 -8
-19 -19 -18 -18 -18 -17 -18 -19 -18 -17 -16 -14 -9 -0 -7 -13 -14 -13 -14 -16 -17 -16 -16 -15 -15 -15 -14 -11 -8 -7 -1 3 2 -2 -8 -8 -4 -5 -8 -13 -15 -17 -18 -19 -19 -19 -19 -19 -19 -18 -17 -15 -14 -13 -11 -8 -7 -6 -5 -5 -5 -6 -7
-19 -20 -21 -21 -21 -19 -19 -19 -20 -19 -17 -16 -14 -9 -9 -10 -13 -12 -15 -17 -18 -17 -16 -15 -15 -15 -12 -10 -8 -4 1 -1 -5 -8 -9 -5 -6 -9 -11 -14 -19 -18 -20 -20 -20 -20 -20 -19 -18 -17 -16 -15 -14 -12 -8 -8 -7 -5 -4 -4 -3 -2 -2
-24 -22 -22 -22 -24 -24 -22 -20 -22 -21 -20 -19 -17 -15 -4 -10 -13 -13 -15 -16 -18 -17 -17 -16 -15 -13 -10 -9 -8 -7 -7 -7 -10 -11 -8 -9 -12 -13 -14 -18 -19 -20 -21 -20 -20 -21 -20 -19 -18 -17 -15 -13 -11 -10 -8 -7 -6 -6 -4 -3 -3 -1 -1
-26 -25 -26 -25 -26 -25 -25 -24 -23 -22 -21 -19 -19 -18 -16 -16 -15 -15 -15 -17 -17 -16 -17 -14 -12 -11 -11 -10 -10 -11 -12 -14 -15 -14 -15 -15 -15 -16 -22 -22 -21 -21 -22 -22 -22 -21 -18 -17 -17 -14 -12 -10 -9 -8 -7 -7 -7 -6 -5 -5 -4 -4 -5
-27 -27 -26 -25 -25 -24 -24 -23 -23 -23 -23 -21 -21 -20 -19 -17 -17 -17 -17 -16 -17 -15 -14 -13 -13 -14 -15 -16 -17 -18 -20 -19 -20 -17 -17 -17 -17 -21 -23 -23 -23 -21 -20 -20 -20 -18 -18 -17 -15 -15 -14 -12 -12 -13 -13 -11 -11 -11 -10 -9 -10 -10 -10
-27 -27 -27 -26 -25 -24 -23 -23 -24 -24 -23 -24 -23 -22 -21 -20 -20 -18 -18 -19 -19 -17 -18 -18 -18 -18 -18 -19 -19 -19 -19 -19 -19 -22 -24 -24 -24 -23 -23 -23 -20 -18 -18 -18 -18 -18 -18 -17 -17 -16 -17 -17 -17 -17 -15 -13 -12 -13 -13 -12 -12 -12 -12
-29 -27 -26 -26 -25 -25 -24 -24 -24 -24 -25 -23 -23 -22 -22 -22 -21 -21 -21 -21 -20 -18 -18 -19 -18 -20 -21 -23 -24 -26 -26 -27 -26 -26 -25 -26 -25 -24 -22 -19 -15 -14 -17 -19 -19 -20 -19 -19 -19 -20 -20 -19 -19 -19 -17 -15 -15 -15 -15 -14 -14 -14 -15
-26 -25 -24 -24 -25 -25 -25 -25 -25 -24 -20 -21 -19 -20 -22 -22 -22 -22 -21 -19 -17 -19 -18 -20 -22 -23 -24 -25 -26 -27 -28 -28 -28 -26 -25 -23 -23 -23 -21 -20 -20 -21 -21 -21 -21 -22 -21 -21 -21 -21 -21 -21 -22 -22 -20 -19 -18 -18 -18 -17 -17 -17 -16
-24 -23 -23 -24 -24 -24 -25 -25 -24 -20 -18 -18 -18 -17 -18 -18 -17 -17 -19 -18 -17 -18 -21 -22 -24 -25 -26 -26 -27 -28 -29 -29 -28 -26 -26 -26 -22 -23 -23 -22 -21 -22 -22 -22 -22 -22 -22 -22 -22 -23 -23 -23 -23 -23 -22 -22 -19 -21 -21 -20 -20 -19 -18
-20 -19 -20 -22 -24 -23 -21 -21 -21 -21 -19 -18 -18 -18 -17 -18 -18 -18 -18 -17 -20 -22 -23 -24 -26 -26 -27 -27 -28 -29 -29 -29 -27 -27 -26 -26 -25 -24 -23 -22 -23 -23 -23 -24 -24 -24 -23 -23 -23 -24 -24 -24 -24 -24 -24 -25 -24 -24 -24 -23 -21 -21 -20
-21 -20 -20 -20 -21 -23 -25 -23 -22 -21 -20 -19 -18 -18 -18 -18 -18 -18 -18 -19 -19 -23 -25 -26 -27 -28 -28 -28 -29 -29 -29 -29 -28 -27 -26 -26 -26 -25 -24 -24 -24 -23 -25 -25 -25 -25 -24 -24 -24 -24 -24 -25 -25 -23 -25 -25 -26 -26 -25 -25 -24 -23 -20
-22 -22 -22 -22 -21 -21 -21 -22 -22 -22 -20 -20 -19 -19 -20 -20 -19 -20 -19 -20 -23 -26 -27 -27 -28 -29 -29 -29 -30 -29 -30 -29 -28 -27 -27 -27 -26 -26 -26 -25 -24 -25 -27 -26 -26 -25 -26 -26 -25 -25 -25 -25 -25 -26 -26 -26 -26 -26 -26 -25 -25 -24 -22
-26 -25 -25 -24 -24 -24 -23 -23 -23 -22 -22 -22 -21 -21 -21 -21 -23 -19 -19 -21 -25 -27 -28 -29 -29 -29 -29 -30 -30 -30 -30 -29 -28 -28 -28 -28 -27 -27 -26 -25 -25 -26 -27 -27 -27 -27 -27 -27 -26 -26 -27 -27 -27 -27 -26 -26 -26 -26 -25 -25 -24 -24 -23
-32 -31 -29 -29 -27 -26 -25 -24 -24 -24 -24 -24 -23 -23 -22 -21 -26 -27 -27 -26 -27 -28 -29 -30 -30 -31 -31 -31 -31 -30 -30 -29 -29 -29 -29 -29 -29 -28 -28 -28 -28 -28 -27 -28 -28 -28 -28 -27 -27 -27 -27 -28 -28 -28 -28 -28 -27 -26 -26 -25 -24 -23 -23
-32 -32 -29 -29 -28 -26 -25 -25 -25 -26 -25 -24 -23 -23 -23 -28 -29 -28 -29 -29 -29 -30 -31 -31 -31 -31 -32 -31 -31 -30 -30 -30 -30 -30 -30 -30 -30 -30 -30 -29 -29 -29 -29 -28 -29 -28 -28 -27 -28 -29 -29 -29 -29 -28 -27 -27 -26 -26 -25 -24 -24 -23 -23